Milwaukee, WI

8:36 PM CDT on August 19, 2018 (GMT -0500)
Gen Mitchell International

Weather History for KMKE - June, 2018

Change the Weather History Date:

Wednesday, June 13, 2018

  Actual Average Record
Temperature  
Mean Temperature 75 °F 66 °F  
Max Temperature 82 °F 75 °F 95 °F (1956)
Min Temperature 67 °F 56 °F 42 °F (1968)
Degree Days  
Heating Degree Days 0 3  
Month to date heating degree days 49 56  
Since 1 June heating degree days 49 56  
Since 1 July heating degree days 6548 6866  
Cooling Degree Days 10 4  
Month to date cooling degree days 17 33  
Year to date cooling degree days 116 63  
Since 1 June cooling degree days 17 33  
Growing Degree Days 24 (Base 50)    
Moisture  
Dew Point 54 °F    
Average Humidity 63    
Maximum Humidity 100    
Minimum Humidity 26    
Precipitation  
Precipitation 0.00 in 0.14 in 3.04 in (1950)
Month to date precipitation 1.30 1.68  
Year to date precipitation 16.38 14.32  
Snow  
Snow 0.00 in 0.00 in 0.00 in ()
Month to date snowfall 0.0 0.0  
Since 1 June snowfall 0.0 0.0  
Since 1 July snowfall 46.7 46.9  
Snow Depth 0.00 in    
Sea Level Pressure  
Sea Level Pressure 29.91 in    
Wind  
Wind Speed 9 mph (WNW)    
Max Wind Speed 21 mph    
Max Gust Speed 31 mph    
Visibility 8 miles    
Events      
T = Trace of Precipitation, MM = Missing Value Source: NWS Daily Summary

Daily Weather History Graph

Daily Weather History Graph

Search for Another Location

Airport or City:

Astronomy

Jun. 13, 2018 Rise Set
Actual Time 5:12 AM CDT 8:31 PM CDT
Civil Twilight 4:36 AM CDT 9:06 PM CDT
Nautical Twilight 3:51 AM CDT 9:52 PM CDT
Astronomical Twilight 2:55 AM CDT 10:48 PM CDT
Moon 5:16 AM CDT (6/13) 8:24 PM CDT (6/13)
Length of Visible Light 16h 29m
Length of Day
15h 19m
Waning Crescent, 0% of the Moon is Illuminated
Jun 13
Waning Crescent
Jun 13
New
Jun 20
First Quarter
Jun 27
Full
Jul 6
Last Quarter

Hourly Weather History & Observations

Time (CDT) Temp. Dew Point Humidity Pressure Visibility Wind Dir Wind Speed Gust Speed Precip Events Conditions
12:52 AM 68.0 °F 66.0 °F 93% 29.85 in 4.0 mi Calm Calm - N/A   Partly Cloudy
1:52 AM 68.0 °F 66.9 °F 96% 29.83 in 3.0 mi Calm Calm - N/A   Clear
2:52 AM 70.0 °F 68.0 °F 93% 29.82 in 3.0 mi West 4.6 mph - N/A   Clear
3:32 AM 66.9 °F 66.0 °F 97% 29.82 in 2.5 mi SSW 3.5 mph - N/A   Partly Cloudy
3:52 AM 66.9 °F 66.0 °F 97% 29.81 in 2.0 mi SW 3.5 mph - N/A   Scattered Clouds
4:52 AM 70.0 °F 68.0 °F 93% 29.82 in 6.0 mi West 8.1 mph - N/A   Mostly Cloudy
5:52 AM 70.0 °F 66.9 °F 90% 29.84 in 7.0 mi West 6.9 mph - N/A   Mostly Cloudy
6:52 AM 72.0 °F 66.9 °F 84% 29.85 in 10.0 mi WNW 9.2 mph - N/A   Mostly Cloudy
7:52 AM 73.0 °F 60.1 °F 64% 29.88 in 10.0 mi NW 17.3 mph 24.2 mph N/A   Scattered Clouds
8:52 AM 73.0 °F 55.0 °F 53% 29.91 in 10.0 mi NW 13.8 mph 26.5 mph N/A   Partly Cloudy
9:52 AM 75.0 °F 51.1 °F 43% 29.92 in 10.0 mi NW 19.6 mph 29.9 mph N/A   Partly Cloudy
10:52 AM 77.0 °F 46.9 °F 34% 29.94 in 10.0 mi WNW 18.4 mph 28.8 mph N/A   Partly Cloudy
11:52 AM 77.0 °F 50.0 °F 39% 29.96 in 10.0 mi NW 13.8 mph 24.2 mph N/A   Partly Cloudy
12:52 PM 78.1 °F 50.0 °F 37% 29.95 in 10.0 mi NW 15.0 mph 19.6 mph N/A   Partly Cloudy
1:52 PM 80.1 °F 48.9 °F 34% 29.96 in 10.0 mi WNW 10.4 mph 21.9 mph N/A   Partly Cloudy
2:52 PM 80.1 °F 46.9 °F 31% 29.96 in 10.0 mi WNW 13.8 mph - N/A   Partly Cloudy
3:52 PM 82.0 °F 46.9 °F 29% 29.95 in 10.0 mi ESE 9.2 mph - N/A   Partly Cloudy
4:52 PM 82.0 °F 46.0 °F 28% 29.96 in 10.0 mi Variable 4.6 mph - N/A   Partly Cloudy
5:52 PM 82.0 °F 44.1 °F 26% 29.96 in 10.0 mi North 11.5 mph 20.7 mph N/A   Scattered Clouds
6:52 PM 79.0 °F 43.0 °F 28% 29.96 in 10.0 mi NW 9.2 mph - N/A   Mostly Cloudy
7:52 PM 79.0 °F 42.1 °F 27% 29.97 in 10.0 mi WNW 5.8 mph - N/A   Mostly Cloudy
8:52 PM 73.9 °F 44.1 °F 34% 29.98 in 10.0 mi Calm Calm - N/A   Scattered Clouds
9:52 PM 72.0 °F 46.0 °F 40% 30.00 in 10.0 mi WSW 4.6 mph - N/A   Scattered Clouds
10:52 PM 72.0 °F 48.0 °F 43% 30.00 in 10.0 mi West 3.5 mph - N/A   Scattered Clouds
11:52 PM 70.0 °F 48.9 °F 47% 30.01 in 10.0 mi West 4.6 mph - N/A   Partly Cloudy